Карточка аэропорта USRR

Внимание!
Информация на этой странице в стадии наполнения.
Если вы не увидели какой-то информации, или заметили неточность - пожалуйста сообщите нам!
Спасибо!
Команда RU-STAFF
Название аэропортаСургут
Название аэропорта (англ.)Surgut
Превышение196 ft. (59.7 m.)
Координаты61°20.502', 73°24.168'
Высота перехода700m
Эшелон переходаQFE>=742mm:FL040; QFE<=742mm:FL050
Коды ответчика5570-5577
Зона ОрВДТюмень РПИ (USTV)
Данные METARUSRR 192300Z 03004MPS CAVOK 17/14 Q1000 R07/CLRD60 NOSIG RMK QFE745
Проноз погоды (TAF)USRR 191937Z 1921/2021 03003G12MPS 9999 BKN016 TEMPO 1921/2002 1000 BR SCT002 BKN016 BECMG 2003/2005 05006G14MPS
NOTAMshow/hide NOTAM
AWOS   TABLE

Информация о ВПП

ВПП Длина ВПП (м.) Покрытие Курс ВПП Частота ILS
252780Асфальтобетон253109.1
072780Асфальтобетон73110.5

Диспетчерские позиции

Позывной Наименование органа УВД Частота
USRR_R_APPСургут - Круг120.300
USRR_TWRСургут-Вышка120.800
USRR_APPСургут-Подход129.300



Спутниковое изображение